When you browse on this site, cookies collect data to enhance your experience and personalize the content and advertising you see.
Visit our Privacy Policy to learn more. By continuing to use the site, you agree to this use of cookies and data.
  • In Hungary
  • List of Countries
  • For 7 days
  • Water Temperature
  • Weather Map
  • News
  • Weather Widgets
  • user-avatar
    Login

    Hourly Weather Stratford

    Today, 17 November, Sunday

    Time Temperature Precipitation Wind Pressure Humidity
    00:00 -8°C° 0.1 mm 9 mps 769 mmHg 77%
    01:00 -8°C° 0.1 mm 9 mps 770 mmHg 76%
    02:00 -7°C° 0 mm 7 mps 770 mmHg 78%
    03:00 -7°C° 0 mm 7 mps 770 mmHg 78%
    04:00 -7°C° 0 mm 7 mps 770 mmHg 78%
    05:00 -7°C° 0 mm 7 mps 770 mmHg 78%
    06:00 -6°C° 0 mm 6 mps 771 mmHg 78%
    07:00 -6°C° 0 mm 5 mps 771 mmHg 77%
    08:00 -4°C° 0 mm 4 mps 772 mmHg 77%
    09:00 -3°C° 0 mm 4 mps 772 mmHg 73%
    10:00 -3°C° 0 mm 4 mps 772 mmHg 68%
    11:00 -1°C° 0 mm 3 mps 773 mmHg 64%
    12:00 -1°C° 0 mm 3 mps 772 mmHg 63%
    13:00 0°C° 0 mm 3 mps 772 mmHg 61%
    14:00 +1°C° 0 mm 2 mps 772 mmHg 60%
    15:00 -1°C° 0 mm 2 mps 772 mmHg 65%
    16:00 0°C° 0 mm 1 mps 771 mmHg 71%
    17:00 -1°C° 0 mm 1 mps 771 mmHg 76%
    18:00 -1°C° 0 mm 1 mps 771 mmHg 78%
    19:00 -1°C° 0 mm 1 mps 772 mmHg 80%
    20:00 -2°C° 0 mm 1 mps 772 mmHg 82%
    21:00 -1°C° 0 mm 1 mps 771 mmHg 80%
    22:00 -1°C° 0 mm 1 mps 771 mmHg 79%
    23:00 -3°C° 0 mm 2 mps 770 mmHg 78%

    Tomorrow, 18 November, Monday

    Time Temperature Precipitation Wind Pressure Humidity
    00:00 -3°C° 0 mm 2 mps 770 mmHg 78%
    01:00 -2°C° 0 mm 2 mps 770 mmHg 78%
    02:00 -2°C° 0 mm 2 mps 770 mmHg 78%
    03:00 -2°C° 0 mm 2 mps 769 mmHg 78%
    04:00 -2°C° 0 mm 3 mps 768 mmHg 78%
    05:00 -2°C° 0 mm 3 mps 768 mmHg 78%
    06:00 -2°C° 0 mm 3 mps 768 mmHg 79%
    07:00 -2°C° 0 mm 3 mps 767 mmHg 80%
    08:00 -2°C° 0 mm 4 mps 767 mmHg 80%
    09:00 -1°C° 0 mm 4 mps 767 mmHg 78%
    10:00 0°C° 0 mm 5 mps 766 mmHg 76%
    11:00 +2°C° 0 mm 5 mps 766 mmHg 74%
    12:00 +2°C° 0 mm 6 mps 765 mmHg 75%
    13:00 +2°C° 0 mm 6 mps 764 mmHg 75%
    14:00 +2°C° 0 mm 7 mps 763 mmHg 75%
    15:00 0°C° 0 mm 7 mps 762 mmHg 76%
    16:00 0°C° 0 mm 7 mps 762 mmHg 78%
    17:00 0°C° 0 mm 7 mps 761 mmHg 79%
    18:00 0°C° 0.2 mm 7 mps 760 mmHg 79%
    19:00 0°C° 0.2 mm 7 mps 759 mmHg 79%
    20:00 0°C° 0.2 mm 7 mps 758 mmHg 79%
    21:00 +1°C° 1.7 mm 9 mps 757 mmHg 83%
    22:00 +1°C° 1.7 mm 10 mps 755 mmHg 88%
    23:00 +1°C° 1.7 mm 11 mps 754 mmHg 92%

    Day after tomorrow, 19 November, Tuesday

    Time Temperature Precipitation Wind Pressure Humidity
    00:00 +2°C° 2.6 mm 11 mps 752 mmHg 93%
    01:00 +3°C° 2.6 mm 10 mps 751 mmHg 93%
    02:00 +3°C° 2.6 mm 10 mps 750 mmHg 93%
    03:00 +5°C° 0.8 mm 9 mps 748 mmHg 94%
    04:00 +6°C° 0.8 mm 8 mps 747 mmHg 95%
    05:00 +6°C° 0.8 mm 7 mps 746 mmHg 95%
    06:00 +8°C° 0.4 mm 7 mps 745 mmHg 96%
    07:00 +9°C° 0.4 mm 6 mps 744 mmHg 97%
    08:00 +10°C° 0.4 mm 5 mps 743 mmHg 98%
    09:00 +11°C° 0.1 mm 6 mps 743 mmHg 97%
    10:00 +13°C° 0.1 mm 6 mps 743 mmHg 96%
    11:00 +14°C° 0.1 mm 7 mps 743 mmHg 94%
    12:00 +12°C° 0 mm 8 mps 744 mmHg 93%
    13:00 +10°C° 0 mm 9 mps 745 mmHg 92%
    14:00 +8°C° 0 mm 10 mps 745 mmHg 90%
    15:00 +8°C° 0 mm 10 mps 746 mmHg 88%
    16:00 +7°C° 0 mm 10 mps 747 mmHg 87%
    17:00 +7°C° 0 mm 10 mps 748 mmHg 85%
    18:00 +6°C° 0 mm 9 mps 749 mmHg 85%
    19:00 +6°C° 0 mm 8 mps 750 mmHg 86%
    20:00 +6°C° 0 mm 7 mps 750 mmHg 86%
    21:00 +6°C° 0 mm 7 mps 751 mmHg 86%
    22:00 +6°C° 0 mm 7 mps 751 mmHg 86%
    23:00 +6°C° 0 mm 7 mps 751 mmHg 85%

    20 November, Wednesday

    Time Temperature Precipitation Wind Pressure Humidity
    00:00 +6°C° 0 mm 8 mps 751 mmHg 84%
    01:00 +5°C° 0 mm 8 mps 751 mmHg 83%
    02:00 +5°C° 0 mm 9 mps 752 mmHg 82%
    03:00 +3°C° 0 mm 9 mps 752 mmHg 82%
    04:00 +1°C° 0 mm 8 mps 752 mmHg 82%
    05:00 0°C° 0 mm 8 mps 753 mmHg 81%
    06:00 0°C° 0 mm 7 mps 753 mmHg 81%
    07:00 -1°C° 0 mm 6 mps 753 mmHg 81%
    08:00 0°C° 0 mm 5 mps 753 mmHg 81%
    09:00 0°C° 0 mm 4 mps 753 mmHg 79%
    10:00 0°C° 0 mm 4 mps 753 mmHg 76%
    11:00 +2°C° 0 mm 3 mps 753 mmHg 74%
    12:00 +2°C° 0 mm 3 mps 752 mmHg 74%
    13:00 +2°C° 0 mm 3 mps 751 mmHg 75%
    14:00 +2°C° 0 mm 3 mps 750 mmHg 75%
    15:00 +2°C° 0 mm 3 mps 750 mmHg 78%
    16:00 +1°C° 0 mm 3 mps 750 mmHg 82%
    17:00 +1°C° 0 mm 3 mps 750 mmHg 85%
    18:00 +1°C° 0.2 mm 3 mps 750 mmHg 88%
    19:00 -1°C° 0.2 mm 4 mps 750 mmHg 90%
    20:00 -1°C° 0.2 mm 4 mps 749 mmHg 93%
    21:00 -1°C° 0.3 mm 5 mps 749 mmHg 94%
    22:00 -1°C° 0.3 mm 5 mps 749 mmHg 94%
    23:00 -2°C° 0.3 mm 6 mps 748 mmHg 95%

    21 November, Thursday

    Time Temperature Precipitation Wind Pressure Humidity
    00:00 -1°C° 0.9 mm 5 mps 748 mmHg 96%
    01:00 -1°C° 0.9 mm 5 mps 748 mmHg 97%
    02:00 -1°C° 0.9 mm 5 mps 747 mmHg 97%
    03:00 -1°C° 0.8 mm 5 mps 747 mmHg 97%
    04:00 -1°C° 0.8 mm 5 mps 747 mmHg 97%
    05:00 -2°C° 0.8 mm 6 mps 747 mmHg 97%
    06:00 -2°C° 0.5 mm 6 mps 747 mmHg 97%
    07:00 -2°C° 0.5 mm 7 mps 747 mmHg 96%
    08:00 -2°C° 0.5 mm 8 mps 747 mmHg 96%
    09:00 -2°C° 0.2 mm 8 mps 747 mmHg 96%
    10:00 -1°C° 0.2 mm 9 mps 747 mmHg 96%
    11:00 0°C° 0.2 mm 9 mps 748 mmHg 96%
    12:00 0°C° 0.2 mm 9 mps 748 mmHg 95%
    13:00 +1°C° 0.2 mm 10 mps 748 mmHg 94%
    14:00 +1°C° 0.2 mm 10 mps 748 mmHg 93%
    15:00 +1°C° 0 mm 10 mps 749 mmHg 90%
    16:00 +1°C° 0 mm 10 mps 749 mmHg 88%
    17:00 +1°C° 0 mm 9 mps 750 mmHg 86%
    18:00 +1°C° 0 mm 9 mps 750 mmHg 86%
    19:00 +1°C° 0 mm 8 mps 751 mmHg 86%
    20:00 0°C° 0 mm 8 mps 752 mmHg 85%
    21:00 0°C° 0 mm 7 mps 752 mmHg 85%
    22:00 0°C° 0 mm 7 mps 752 mmHg 86%
    23:00 0°C° 0 mm 7 mps 752 mmHg 86%

    22 November, Friday

    Time Temperature Precipitation Wind Pressure Humidity
    00:00 +1°C° 0 mm 6 mps 752 mmHg 87%
    01:00 -1°C° 0 mm 6 mps 753 mmHg 87%
    02:00 -1°C° 0 mm 6 mps 753 mmHg 88%
    03:00 -1°C° 0 mm 5 mps 753 mmHg 89%
    04:00 -1°C° 0 mm 5 mps 753 mmHg 90%
    05:00 -1°C° 0 mm 4 mps 753 mmHg 90%
    06:00 -1°C° 0 mm 4 mps 753 mmHg 91%
    07:00 0°C° 0 mm 3 mps 753 mmHg 91%
    08:00 0°C° 0 mm 3 mps 753 mmHg 91%
    09:00 +1°C° 0 mm 3 mps 753 mmHg 88%
    10:00 +1°C° 0 mm 3 mps 752 mmHg 85%
    11:00 +2°C° 0 mm 3 mps 752 mmHg 82%
    12:00 +1°C° 0.1 mm 4 mps 751 mmHg 83%
    13:00 +1°C° 0.1 mm 4 mps 750 mmHg 85%
    14:00 +2°C° 0.1 mm 5 mps 749 mmHg 87%
    15:00 +2°C° 0.5 mm 6 mps 748 mmHg 88%
    16:00 +2°C° 0.5 mm 7 mps 746 mmHg 90%
    17:00 +1°C° 0.5 mm 8 mps 745 mmHg 92%
    18:00 +4°C° 0.4 mm 8 mps 743 mmHg 93%
    19:00 +5°C° 0.4 mm 8 mps 742 mmHg 94%
    20:00 +6°C° 0.4 mm 7 mps 740 mmHg 95%
    21:00 +6°C° 0.4 mm 8 mps 740 mmHg 92%
    22:00 +5°C° 0.4 mm 9 mps 739 mmHg 89%
    23:00 +5°C° 0.4 mm 9 mps 738 mmHg 85%
    Show more